Zurück zum Katalog

NOAA 16 DEB

AktivSSO
NORAD 41233·DEBRIS·🇺🇸 United States

Gestartet Sep 21, 2000 von Vandenberg Space Force Base

Loading…

Nächste Überflüge (nächste 24 Stunden)

TLE

AktuellSource: Space-Track

Epoche: Sep 14, 2026, 01:46 UTC

1 41233U 00055EN  26257.07407050  .00001888  00000-0  87296-3 0  9998
2 41233  98.6885 293.7780 0037106 240.5178 119.2296 14.21705506553788

Verfolge NOAA 16 DEB in Echtzeit mit AllMySat

Download on the App Store